Tracking 19800 objects as of 24-Jul-2019
HD Live streaming from Space Station
objects crossing your sky now

COSMOS 1275 DEB

Track COSMOS 1275 DEB now!
10-day predictions


NORAD ID: 42175
Int'l Code: 1981-053SP
Perigee: 977.1 km
Apogee: 1,188.6 km
Inclination: 83.0 °
Period: 106.7 minutes
Semi major axis: 7453 km
RCS: Unknown
Launch date: June 4, 1981
Source: Commonwealth of Independent States (former USSR) (CIS)
Launch site: PLESETSK MISSILE AND SPACE COMPLEX (PKMTR)

Note: This is SATELLITE DEBRIS
aabbcc
Your satellite tracking list
Your tracking list is empty




NASA's NSSDC Master Catalog

Two Line Element Set (TLE):
1 42175U 81053SP  19203.15864792 +.00000089 +00000-0 +10986-3 0  9997
2 42175 083.0308 151.5488 0141870 131.5183 290.2290 13.49055657279195
Source of the keplerian elements: AFSPC